Miscellaneous Local Product
Issued by NWS Hastings, NE

Home | Current Version | Previous Version | Text Only | Print | Product List | Glossary Off
Versions: 1 2 3 4 5 6 7 8 9 10 11 12 13 14 15 16 17 18 19 20 21 22 23 24 25 26 27 28 29 30 31 32 33 34 35 36 37 38 39 40 41 42 43 44 45 46 47 48 49 50

767
AXUS43 KGID 270602
MISGRI

GID CWA HOURLY WEATHER ROUNDUP
NATIONAL WEATHER SERVICE HASTINGS NE
100 AM CDT SAT MAY 27 2017

NOTE: "FAIR" INDICATES FEW OR NO CLOUDS BELOW 12,000 FEET WITH NO
SIGNIFICANT WEATHER AND/OR OBSTRUCTIONS TO VISIBILITY.

...SOUTH CENTRAL NEBRASKA...

CITY           SKY/WX    TMP DP  RH WIND       PRES   REMARKS
GRAND ISLAND   CLOUDY    59  48  67 NE8       29.92S
HASTINGS       CLOUDY    60  50  69 N7        29.91S
KEARNEY        CLOUDY    61  46  59 NE9       29.91F
ORD            MOCLDY    58  45  62 E3        29.91S
YORK           PTCLDY    61  46  59 NE9       29.91S
AURORA         CLOUDY    60  48  65 N6        29.91S
LEXINGTON      LGT RAIN  61  51  69 CALM      29.93R
HOLDREGE       CLOUDY    64  48  57 CALM      29.92R
HEBRON         CLOUDY    60  52  73 CALM      29.88S

...NEBRASKA PANHANDLE...

CITY           SKY/WX    TMP DP  RH WIND       PRES   REMARKS
CHADRON        CLOUDY    51  47  86 VRB6      29.97F
ALLIANCE       CLOUDY    50  49  96 N9        29.99R
SCOTTSBLUFF    CLOUDY    50  46  86 CALM      29.99F
SIDNEY         CLOUDY    51  50  96 N14       29.97F

...WESTERN AND NORTH CENTRAL NEBRASKA...

CITY           SKY/WX    TMP DP  RH WIND       PRES   REMARKS
VALENTINE      LGT RAIN  55  49  80 N6        29.96F
AINSWORTH      LGT RAIN  59  49  68 W5        29.96R
ONEILL         CLOUDY    59  48  66 CALM      29.95R
BROKEN BOW     CLOUDY    62  46  55 E9        29.91R
IMPERIAL       CLOUDY    57  49  74 S12G24    29.90R
NORTH PLATTE   LGT RAIN  62  55  77 S16G22    29.92R
MCCOOK         RAIN      59  55  87 W5        29.95S FOG

...EASTERN NEBRASKA...

CITY           SKY/WX    TMP DP  RH WIND       PRES   REMARKS
NORFOLK        CLOUDY    53  46  77 W6        29.92R
SO SIOUX CITY  CLOUDY    57  46  66 N5        29.89R
TEKAMAH        CLOUDY    56  48  74 NW8       29.88R
ALBION         CLOUDY    57  47  71 CALM      29.93S
OMAHA EPPLEY   CLOUDY    60  51  72 N6        29.87R
OFFUTT AFB     CLOUDY    64  49  59 N7        29.87R
MILLARD        CLOUDY    67  49  51 CALM      29.88R
LINCOLN        CLOUDY    63  51  65 N6        29.89R
NEBRASKA CITY  MOCLDY    66  47  50 NE5       29.87R
BEATRICE       CLOUDY    64  51  61 CALM      29.88R
FALLS CITY     PTCLDY    68  52  56 CALM      29.84R

...NORTHERN KANSAS...

CITY           SKY/WX    TMP DP  RH WIND       PRES   REMARKS
GOODLAND       TSTM      53  50  89 NE16      29.91F FOG
HILL CITY      CLOUDY    67  56  67 NE8       29.87S
NORTON         LGT RAIN  59  54  82 W17       29.94R
PHILLIPSBURG   PTCLDY    64  54  68 NE5       29.86F
SMITH CENTER   MOCLDY    63  52  67 NE9       29.88S
HAYS           CLOUDY    64  59  83 E13       29.82F
RUSSELL        CLOUDY    62  58  86 E10       29.82F
CONCORDIA      CLOUDY    64  56  75 CALM      29.86R
SALINA         CLOUDY    70  61  73 CALM      29.84S
TOPEKA         PTCLDY    67  66  97 CALM      29.82F



USA.gov is the U.S. government's official web portal to all federal, state and local government web resources and services.